ELECTRON KICK STAGE R/B, 53104

Orbit data source: Space-Track

ELECTRON KICK STAGE R/B, 53104 is space debris in LEO originally from a launch on Wed, 13 Jul 2022 UTC launched from the Rocket Lab Launch Complex (RLLC). Debris objects in space refer to the collection of defunct objects orbiting the Earth. Examples of debris include non-operational satellites, rocket bodies, and fragments generated from explosions, collisions, or faulty payload assembly.

Loading next visibility...
Identifier
53104, 2022-079C
Orbit
LEO
Country
Flag of USUS
Related business
Manufacturer
Rocket Lab
Mission
Spacecraft
Bus & Motor
KICK STAGE, CURIE
Mass
40 kg wet, ~40 kg dry
Launch date (UTC)
2022-07-13 (4 years ago)
Launch vehicle
Unknown
Launch site
Rocket Lab Launch Complex (RLLC)
Object type
Payload
Rocket body
Debris
Shape & HBR
Trunc Cone, 0.7 m
Radar Cross Section
0.760 m², Medium (>0.1 m² and < 1m²)

Expand to show TLE details & history
Last TLE update: 2 days ago

TLE from 2 days ago
0 ELECTRON KICK STAGE R/B
1 53104U 22079C   26171.44364022  .00003067  00000-0  24788-3 0  9993
2 53104  40.0119 204.2176 0005754 286.8876  73.1287 15.00922063115865
Epoch: 2026-06-20T10:38Z
TLE epoch observation values (Epoch: 2026-06-20T10:38:50.515Z)
Latitude
0.00004°
Longitude
135.84899°
Altitude
562.346 km
Speed
7.583 km/s
True Right ascension
13h 36m 52s
True Declination
0° 00' 00"
Sunlit
Object was in partial shadow at epoch
Visualization orbit readout
Latitude
Unknown
Longitude
Unknown
Altitude
Unknown
Speed
Unknown
Apparent Right ascension
Unknown
Apparent Declination
Unknown
Sunlit
N/A
Visualization observer readout
Local Sidereal Time
21:28:38
Azimuth
Unknown
Elevation
Unknown
Doppler factor
Unknown
Orbital elements
Apogee altitude
570.463 km
Perigee altitude
562.471 km
Semi-major axis
6,944.604 km
Eccentricity
0.00058
Inclination
40.0119°
RAAN
204.2176°
Arg. of periapsis
286.8876°
True anomaly
73.19181°
Mean anomaly
73.1287°
Eccentric anomaly
73.16025°
Mean motion
3.75035 °/min
Orbital period
95.99 mins
BSTAR
0.00024788
Loading maneuver chart data...
Computing Atmospheric mass density...
Loading historical data...
Loading historical data...
Loading historical data...
Loading historical data...
Loading historical data...
Loading historical data...
Loading historical data...
Other satellites on launch #79 in the year 2022 (2022-07-13 UTC)

Documentation

Showing up to 5 results
|